Location: St Paul
(33.9360°N, 83.4200°W)
Time: 04:28:50
(UTC-04:00)

OAO 3 Rocket - Pass Details

Date: 06 October 2017
Orbit: 630 x 683 km, 35.0° (Epoch: 20 October)

Event Time Altitude Azimuth Distance (km) Brightness Sun altitude
Rises 21:00:49 0° 281° (W) 3,027 8.1 -23.6°
Reaches altitude 10° 21:03:13 10° 280° (W) 2,107 6.9 -24.1°
Maximum altitude 21:08:08 75° 196° (SSW) 694 3.2 -25.1°
Enters shadow 21:08:11 75° 190° (S) 694 3.1 -25.1°
